GFSNW_con_lsi_114.txt.gz
Lid_Strength_Index
5 4 3 3 2 3 5 4 9 3 2 8 8 11 9 8 9 7 8 8 9 10 10 11 11 11 10 8 8 10 9 11 16 13 9 9 10 12 12 17 17 16 17 18
5 5 4 3 3 3 5 6 6 2 3 12 11 9 9 8 9 8 8 9 8 9 10 12 11 10 8 7 8 10 10 13 18 17 13 11 13 11 11 12 14 17 20 18
5 5 5 4 3 4 5 6 10 6 6 7 9 10 10 10 7 8 8 8 8 9 10 10 11 10 8 8 8 7 8 12 15 18 16 13 15 13 12 13 18 17 16 15
6 6 5 5 4 3 5 7 10 9 11 10 9 9 9 10 10 8 8 9 9 10 12 12 12 11 10 9 8 9 10 15 14 13 12 13 14 14 13 15 14 17 15 15
6 6 5 6 6 5 5 8 9 9 10 10 10 11 11 10 10 10 11 11 10 11 12 12 13 12 12 12 10 11 10 16 14 17 13 13 15 13 14 13 13 14 14 14
6 6 6 6 6 6 7 7 7 9 10 11 12 11 11 10 10 10 9 10 11 11 11 10 10 10 10 11 12 12 13 15 17 19 15 15 17 15 14 13 13 13 15 13
6 6 6 6 6 7 8 9 9 10 12 12 11 10 10 11 10 11 10 10 11 10 8 9 10 11 11 11 12 11 14 15 16 19 18 23 15 14 13 14 13 12 12 12
6 6 7 7 6 7 9 9 10 11 13 12 12 11 11 11 10 11 10 9 9 9 10 13 15 15 15 14 12 13 12 15 17 21 21 16 15 15 15 16 15 13 13 13
6 6 6 7 7 7 8 10 10 11 13 14 11 12 12 13 13 12 11 9 9 10 12 14 19 19 18 18 16 14 13 13 16 19 21 22 17 14 12 13 18 13 12 13
6 7 6 7 6 7 9 11 10 11 14 13 13 14 13 11 13 13 12 11 12 11 14 16 18 19 17 20 20 19 18 16 18 17 19 18 13 13 12 20 18 13 12 12
5 6 7 7 7 7 8 10 11 12 13 13 12 12 13 13 13 15 12 12 13 13 15 16 16 17 16 18 16 17 17 19 19 18 20 22 13 14 16 14 14 12 12 12
4 5 6 7 7 7 8 10 11 12 14 14 12 12 12 12 13 13 13 14 14 13 15 15 15 16 16 17 19 15 18 15 17 16 16 13 12 13 12 12 13 13 13 12
4 5 5 7 7 7 8 10 11 11 14 14 14 14 12 12 12 12 15 14 13 13 13 15 15 17 16 19 18 16 15 14 17 16 15 14 13 12 12 12 12 12 12 12
4 4 5 5 7 7 8 10 10 11 13 16 14 12 14 13 13 13 12 13 12 13 13 15 16 18 15 17 16 16 15 15 17 16 14 14 12 12 12 12 12 12 12 12
5 5 5 5 6 7 7 9 9 10 13 16 15 12 14 13 13 13 13 13 14 14 16 17 17 16 16 15 16 16 14 15 17 17 14 15 15 14 13 14 13 13 12 12
5 5 5 5 6 7 9 13 11 10 12 15 16 14 15 14 14 14 14 13 14 14 15 15 15 14 16 18 19 15 14 13 13 14 13 14 14 14 14 14 13 13 13 13
5 5 5 5 6 8 11 12 11 10 11 15 17 16 15 15 15 14 15 14 14 15 14 15 16 15 15 17 18 14 14 13 13 12 13 14 14 14 14 14 13 13 14 14
5 5 5 5 6 7 10 9 9 11 13 15 17 18 17 15 16 17 14 15 14 15 16 15 16 16 16 17 15 13 13 13 13 13 13 13 14 15 15 15 15 15 16 16
5 5 6 7 9 11 11 8 9 11 13 16 17 18 18 16 16 16 17 15 18 15 16 16 16 18 19 16 15 14 14 14 14 14 14 14 15 15 15 15 15 16 17 16
6 7 10 13 11 8 9 12 14 15 15 16 17 15 18 16 17 17 17 16 18 19 17 17 17 18 15 14 13 13 13 13 13 17 17 17 17 16 16 16 16 16 16 16
8 10 12 11 9 11 13 15 16 16 17 16 16 17 16 15 16 16 15 16 17 20 18 18 19 19 16 14 14 13 13 13 12 13 14 14 15 16 16 16 16 16 16 16
8 9 9 11 13 14 16 17 16 17 17 16 15 15 16 15 14 15 16 18 17 20 17 19 21 18 15 14 14 14 14 14 14 13 14 14 15 15 16 16 17 17 18 18
6 9 13 14 14 17 18 19 18 17 16 15 16 17 15 15 15 15 15 18 18 17 19 21 20 15 13 13 14 15 15 14 14 14 14 14 15 15 15 16 16 16 16 16
8 11 13 15 17 16 15 15 15 13 13 14 14 15 14 13 14 13 16 14 16 21 22 21 16 13 12 13 14 14 14 15 15 16 16 16 15 15 15 16 16 16 16 17
9 10 14 15 13 13 13 13 13 13 11 11 13 13 13 15 13 13 13 15 18 18 19 14 11 11 12 12 13 13 13 13 15 15 16 15 16 16 16 15 16 16 16 17
8 10 12 11 11 12 13 14 13 11 11 11 12 11 13 13 13 14 18 17 19 16 13 11 10 12 11 12 12 12 12 13 13 13 13 14 15 15 15 15 15 16 16 17
9 11 10 10 12 12 11 11 10 8 11 14 11 13 14 12 14 16 14 16 14 11 9 12 11 10 9 9 11 11 12 12 12 12 13 14 15 16 16 15 15 16 16 16

GFSNW_con_lsi_117.txt.gz
Lid_Strength_Index
6 4 3 3 3 3 6 7 12 5 5 11 12 15 11 8 10 8 9 10 10 12 12 13 13 13 11 9 9 12 11 13 17 14 11 9 11 12 13 18 18 18 19 20
5 6 5 3 3 4 8 10 10 5 6 14 16 11 10 9 10 9 9 10 9 10 12 14 12 12 9 9 10 12 11 15 21 17 14 13 14 13 12 13 15 18 21 18
5 5 5 5 4 3 8 10 14 9 9 10 12 12 12 11 9 9 9 10 10 11 13 12 13 12 10 9 10 7 9 14 17 20 18 15 16 14 13 14 20 18 17 16
5 5 5 5 5 4 7 10 13 12 15 12 12 12 12 12 12 10 10 12 11 12 14 14 14 12 11 10 8 10 11 16 16 14 14 14 14 14 14 15 15 18 16 16
5 6 6 5 6 5 10 12 12 12 13 12 13 12 13 12 12 12 12 13 11 12 14 13 14 13 13 13 12 12 12 17 16 19 14 15 16 15 14 14 14 14 14 15
5 6 6 6 6 7 12 12 11 11 12 13 15 14 13 12 11 11 10 11 13 13 12 12 12 12 12 12 13 14 14 17 19 20 17 17 19 16 16 15 15 14 17 14
5 6 6 7 7 7 12 13 13 14 15 14 13 12 12 12 12 13 11 11 13 12 10 11 12 13 13 13 13 12 15 16 18 21 19 24 17 14 14 15 14 13 14 13
4 6 6 6 6 7 11 13 13 15 17 15 14 13 13 12 12 13 12 11 11 11 12 15 17 17 16 15 14 15 14 16 20 22 23 18 16 16 16 17 17 14 13 13
4 5 6 6 6 6 10 12 12 14 16 16 14 15 14 15 16 15 12 11 10 11 13 16 20 21 19 19 18 15 14 15 18 20 23 22 18 16 14 15 20 15 14 14
3 4 6 6 6 6 10 12 12 13 16 14 15 16 16 14 16 16 15 13 13 12 15 17 19 20 17 20 20 20 18 18 18 18 19 18 15 14 14 20 18 14 13 14
2 3 5 6 7 7 10 11 11 13 16 15 13 13 14 15 15 17 15 15 15 16 18 19 19 19 18 18 17 18 18 20 20 19 20 22 15 15 17 15 15 14 14 14
3 3 4 6 7 7 8 12 11 11 14 15 12 12 12 12 13 15 15 16 15 15 17 18 18 19 19 19 21 18 20 17 18 18 18 14 14 14 13 14 15 15 14 13
3 2 3 4 6 7 9 12 12 12 15 15 14 14 12 11 12 12 15 15 14 14 13 15 16 18 18 20 19 18 17 16 18 18 16 14 13 13 13 14 14 13 13 13
3 3 3 4 5 6 7 12 12 13 14 18 16 13 14 13 12 12 12 13 12 13 14 15 16 18 15 18 17 18 16 16 17 16 15 14 14 14 13 13 14 13 14 14
4 4 4 4 5 6 8 10 10 11 14 17 16 14 14 14 14 14 13 13 14 15 16 18 17 16 16 16 16 16 14 15 16 17 14 14 14 15 14 14 14 14 14 14
5 5 4 5 5 6 9 14 12 11 12 16 17 14 16 15 14 14 15 14 15 15 16 17 15 14 15 19 19 15 14 13 12 13 12 13 13 14 14 14 14 14 14 14
4 5 5 5 5 8 10 12 11 10 11 14 17 17 15 14 15 15 15 15 16 16 16 17 17 16 15 17 18 14 14 14 13 13 13 13 13 13 13 14 13 13 14 14
5 5 4 4 5 7 9 8 8 10 13 15 18 18 17 16 17 17 14 15 14 15 16 15 16 16 16 18 15 14 14 14 14 13 13 12 13 13 14 14 14 15 15 16
4 5 6 7 9 10 11 8 9 11 13 16 17 18 17 17 17 17 17 15 18 16 16 16 16 17 18 16 16 15 14 15 14 13 13 14 14 14 14 14 15 16 16 16
5 8 10 13 11 8 8 12 14 14 14 15 17 18 18 17 18 17 18 16 17 19 17 17 17 18 14 14 13 13 13 13 13 16 15 16 16 15 14 15 15 15 16 16
9 11 12 11 8 12 13 15 16 16 17 16 16 16 16 14 16 16 15 18 18 20 19 19 19 19 17 14 14 13 14 14 14 14 14 14 14 15 15 15 15 15 16 16
8 9 10 10 12 14 15 16 16 17 18 17 16 16 15 15 14 15 16 19 18 21 17 19 21 18 16 15 14 13 14 14 14 13 13 13 13 13 14 15 16 16 16 17
8 12 13 13 14 17 18 22 19 18 16 15 15 16 14 15 14 15 15 18 18 18 19 20 18 14 13 13 13 14 14 13 13 13 12 12 12 12 13 14 15 15 15 15
12 13 16 16 18 16 16 17 17 14 14 14 14 15 14 13 14 14 17 15 16 19 22 21 16 13 12 11 12 13 12 12 12 14 14 13 13 13 14 14 14 14 14 14
10 11 16 16 15 18 16 16 15 14 12 11 12 12 12 14 15 13 16 17 21 21 19 16 14 11 11 10 10 9 9 11 12 12 14 13 13 14 14 13 14 14 14 15
9 11 14 12 13 14 14 18 16 13 12 12 12 11 12 12 13 15 17 20 21 17 16 14 13 10 10 8 9 9 8 9 11 12 12 12 13 13 14 13 13 13 14 15
9 12 10 15 17 16 14 12 12 10 10 11 10 12 14 13 13 15 17 18 14 13 12 11 10 10 8 8 9 9 9 9 9 11 10 11 13 15 16 14 11 13 14 14

GFSNW_con_lsi_123.txt.gz
Lid_Strength_Index
5 5 5 4 3 4 6 9 13 7 7 13 14 16 13 9 11 9 10 11 12 13 14 14 15 15 13 10 11 13 13 15 18 15 13 12 14 15 16 20 21 20 21 21
5 5 6 5 4 4 9 11 11 7 9 17 18 13 11 11 11 11 11 12 11 12 13 15 14 13 11 10 12 13 13 17 22 20 17 15 15 14 14 16 17 20 22 19
3 5 6 5 5 4 9 12 15 12 12 13 14 14 14 13 11 11 11 12 12 13 14 13 15 14 11 11 11 8 10 16 18 22 20 17 16 16 15 15 21 19 18 16
3 4 5 5 6 5 11 14 14 13 16 14 14 14 13 14 14 12 11 13 12 13 16 15 15 14 13 12 9 12 13 18 19 17 16 16 16 16 16 16 15 18 17 17
3 4 4 5 5 6 12 15 14 14 15 14 15 14 15 14 13 13 14 14 13 13 15 14 15 14 15 15 14 14 14 18 18 20 16 17 17 16 16 16 16 16 16 16
3 3 4 5 5 9 13 14 14 14 14 15 17 16 14 13 13 13 12 13 14 14 13 13 13 13 13 14 14 15 16 18 19 21 18 18 21 18 17 17 17 16 18 15
3 3 3 4 5 9 12 13 14 16 18 17 15 14 14 14 13 15 13 12 14 13 11 12 14 16 15 15 14 13 16 17 19 21 20 25 19 16 16 16 16 15 15 14
2 3 3 3 4 7 11 13 13 15 19 17 17 16 15 14 14 14 13 13 12 12 14 16 18 19 18 17 16 16 15 16 20 23 24 19 17 17 17 18 17 15 15 14
2 3 3 3 4 5 11 13 13 14 16 17 16 16 17 17 18 17 14 12 12 13 15 17 20 21 21 20 19 16 16 16 18 21 23 24 20 17 15 17 20 17 16 16
2 2 3 3 4 4 9 11 12 14 16 15 15 16 17 16 17 18 18 15 15 15 17 19 21 22 20 21 21 20 20 20 20 21 22 20 17 16 16 21 20 17 16 16
2 2 3 3 4 4 8 9 10 13 15 15 13 13 15 15 17 18 17 17 16 17 19 20 20 21 20 22 21 21 21 22 22 21 23 24 16 16 18 16 16 16 15 15
3 3 3 3 4 5 7 11 10 10 13 13 13 12 12 13 14 15 16 17 16 16 19 20 19 19 20 20 21 19 21 19 20 19 19 16 16 15 14 14 15 14 14 13
4 4 3 3 4 5 8 10 10 12 14 14 14 14 13 12 12 12 15 15 14 15 15 17 17 18 17 19 20 19 17 16 18 17 16 15 14 13 13 13 13 12 12 13
4 4 4 4 4 4 7 9 10 11 14 17 14 12 14 13 13 13 13 13 13 13 14 15 16 17 15 17 16 17 16 17 18 18 15 15 14 14 14 13 13 13 13 13
4 4 5 5 4 4 6 8 9 10 13 17 15 14 14 14 14 14 14 13 14 15 16 18 18 16 16 17 17 17 15 16 18 18 15 16 14 12 12 13 13 13 13 13
5 5 5 5 4 5 8 10 10 10 11 16 16 13 16 14 14 14 15 14 15 16 17 18 17 16 16 19 20 15 15 14 14 15 14 14 13 13 13 14 13 13 13 13
5 5 4 4 4 8 9 10 10 8 10 13 15 15 14 14 15 15 16 15 16 16 17 17 17 16 15 17 19 15 15 14 14 13 15 15 15 15 14 14 14 13 14 14
6 5 5 5 4 6 8 8 7 8 11 13 15 15 15 14 16 16 15 15 15 15 16 15 17 16 17 18 16 15 14 14 14 15 15 15 15 15 15 15 15 15 14 14
5 5 6 8 9 11 10 7 8 9 11 14 15 19 19 15 16 15 15 15 17 15 16 16 16 17 18 16 16 15 15 16 15 14 15 16 17 16 16 16 15 15 14 14
5 9 11 13 10 7 8 10 12 13 13 13 15 15 17 16 17 16 16 16 16 19 17 15 17 17 13 13 12 12 12 13 14 18 15 14 14 14 14 14 13 13 13 13
9 11 12 10 7 10 11 14 14 14 15 14 14 14 15 14 14 15 14 17 16 20 18 17 18 17 14 13 12 12 12 12 13 13 13 14 14 14 13 12 11 12 12 12
9 9 9 9 12 13 15 16 15 15 17 16 15 15 14 14 13 16 14 17 16 21 17 19 21 15 13 13 13 12 12 13 13 12 12 11 11 11 12 11 10 10 11 11
8 11 13 14 15 17 18 23 17 18 18 18 15 16 15 15 15 16 15 17 19 17 20 21 18 13 12 13 13 13 12 12 12 11 10 11 11 10 11 10 10 10 11 10
14 16 18 18 23 18 20 20 21 17 17 16 15 17 15 15 17 16 16 17 17 21 21 22 18 14 13 12 11 11 11 11 11 11 11 11 11 10 10 10 10 10 11 10
16 15 19 22 18 21 18 17 17 13 12 12 14 13 15 17 17 15 15 17 18 18 21 17 16 13 13 12 11 11 12 12 13 13 13 11 12 11 10 9 9 10 10 11
12 13 16 15 18 22 19 15 12 12 11 10 10 12 13 14 14 16 16 17 20 18 16 15 15 13 12 11 10 10 10 9 9 9 10 10 10 10 9 9 9 10 10 11
13 14 13 17 20 18 15 13 12 10 10 13 12 13 14 17 16 16 15 19 16 14 14 13 13 12 10 9 9 9 10 10 9 9 10 10 9 9 10 11 10 9 10 10

GFSNW_con_lsi_126.txt.gz
Lid_Strength_Index
5 5 5 5 3 4 6 10 13 8 7 13 15 16 13 9 11 10 11 12 13 14 14 15 16 15 14 11 11 14 14 15 19 16 14 13 15 15 16 20 21 20 21 21
3 5 5 5 5 6 10 12 12 8 10 18 18 14 12 12 12 11 11 12 12 12 13 16 14 13 11 11 12 13 13 17 23 20 18 15 16 15 15 17 19 21 23 20
3 3 4 5 5 5 11 13 15 12 12 14 14 15 14 13 11 12 11 12 12 13 15 14 15 14 12 11 11 8 11 17 19 22 20 17 17 16 16 16 22 20 19 17
2 3 3 4 4 6 11 15 15 14 17 14 15 15 14 14 14 12 12 13 13 14 16 16 16 14 13 12 9 13 13 18 19 18 17 17 17 17 17 17 16 18 17 18
3 3 3 3 5 6 13 14 15 16 16 14 16 14 15 14 13 13 14 14 13 14 15 15 16 15 15 15 14 15 15 19 18 19 17 17 18 17 17 17 16 16 16 16
3 3 3 3 4 8 13 14 14 14 16 17 17 16 14 13 13 13 13 13 14 15 13 13 13 13 14 15 14 15 16 18 19 21 19 19 21 19 17 17 17 17 19 16
2 3 3 3 4 7 11 13 14 16 17 18 17 15 14 14 13 15 13 13 14 13 12 13 14 16 15 15 15 14 17 18 19 21 20 25 19 17 16 16 16 16 16 16
2 2 3 3 4 6 10 12 12 16 18 17 17 17 16 16 15 15 14 13 13 12 14 16 18 20 19 18 17 17 16 17 20 23 25 19 19 17 18 18 18 17 16 16
2 2 3 3 4 6 10 11 11 12 16 16 16 16 17 18 19 17 15 13 12 13 16 17 21 21 21 20 20 17 16 17 19 21 24 24 20 18 16 18 21 18 17 17
2 2 3 3 4 5 9 11 11 12 14 13 14 16 17 16 17 19 17 16 16 15 18 19 21 21 20 22 22 21 21 21 21 21 23 20 17 17 17 21 20 17 16 15
3 3 3 3 4 5 9 11 11 11 13 13 12 12 15 15 16 18 17 17 17 18 19 20 20 21 21 22 21 21 21 22 21 20 22 24 16 18 19 17 17 16 15 15
3 4 4 4 4 5 8 11 11 11 13 12 12 11 11 12 14 14 16 16 16 16 19 19 20 20 21 21 22 20 20 18 20 19 18 16 16 16 15 15 15 14 15 13
4 4 4 4 4 5 7 11 12 12 14 14 14 14 13 11 12 12 15 15 14 15 14 16 17 18 19 20 20 20 18 17 18 18 17 16 14 14 14 14 14 13 13 13
4 4 5 5 4 4 6 8 10 10 13 16 15 12 15 13 13 12 12 13 13 13 15 16 17 17 15 18 17 17 15 17 18 18 15 15 14 13 13 13 13 14 13 14
4 5 5 5 5 4 6 8 9 9 11 15 15 13 14 14 14 14 14 13 14 15 16 18 17 16 16 17 18 17 15 16 18 18 16 16 15 13 13 14 14 14 14 14
5 5 5 5 5 6 8 11 11 10 12 16 16 13 15 14 14 14 14 14 14 15 16 16 16 15 15 19 20 15 14 14 14 15 14 14 14 14 15 15 15 15 15 15
5 5 5 5 5 8 10 11 10 9 10 13 15 15 15 15 15 15 15 15 16 16 16 16 17 16 15 18 19 15 15 14 14 14 15 16 16 16 15 15 15 14 15 15
6 5 5 5 5 6 9 8 8 9 11 13 15 14 17 15 16 17 15 16 15 16 16 15 16 16 16 17 15 14 14 14 15 15 14 14 14 15 15 14 14 14 14 14
5 6 6 9 10 12 10 7 8 9 12 14 14 16 20 15 16 16 16 16 17 15 16 16 15 17 17 14 14 14 14 14 13 13 14 15 15 15 14 14 14 14 13 12
6 9 12 14 10 7 8 11 12 13 13 13 15 15 17 16 17 17 17 17 18 21 17 15 16 17 13 13 13 13 13 13 14 17 14 14 14 13 13 13 13 13 13 12
10 12 14 10 7 10 12 14 15 14 15 14 14 15 15 14 15 16 15 15 16 19 19 18 19 18 16 14 12 12 13 14 14 14 14 14 14 14 14 13 12 11 11 12
10 11 9 9 12 13 15 17 16 15 17 16 15 15 14 14 13 14 14 16 16 19 18 19 22 18 15 15 14 14 13 13 13 13 14 14 13 13 13 13 13 12 11 10
10 13 14 14 16 18 19 26 18 17 15 16 14 15 15 15 14 15 14 17 17 17 20 22 19 16 14 14 13 13 13 13 13 13 13 13 12 12 12 11 10 10 11 10
15 18 18 19 25 20 20 20 20 17 17 17 14 15 16 15 16 15 16 15 17 20 22 23 20 15 14 13 12 12 12 12 13 13 13 12 11 11 11 11 10 10 10 9
18 15 21 21 19 21 18 19 17 13 13 13 12 13 14 16 16 15 15 17 19 18 22 18 18 14 13 13 13 13 13 13 12 12 13 14 13 12 12 10 10 10 10 10
13 16 17 16 20 23 17 16 16 14 12 11 11 13 14 14 15 17 20 19 20 18 17 15 15 13 13 13 12 11 10 9 10 10 10 10 10 10 10 10 10 10 10 10
14 15 13 16 19 19 17 15 14 11 12 14 12 14 17 20 18 18 20 21 17 15 14 14 13 13 11 10 9 9 9 10 10 10 10 10 9 10 11 11 10 9 9 9

GFSNW_con_lsi_132.txt.gz
Lid_Strength_Index
2 2 4 4 5 4 5 6 8 5 5 8 9 10 10 9 9 8 9 10 11 11 11 12 12 12 11 9 9 11 10 12 13 13 12 11 11 12 12 15 17 15 16 15
2 2 3 3 4 6 7 7 7 6 7 10 10 10 10 9 9 9 10 10 10 10 11 12 11 11 10 9 9 11 10 13 15 16 13 12 12 12 12 14 14 16 17 15
2 2 2 2 3 6 8 10 9 7 8 9 10 11 11 11 9 9 9 10 9 10 11 11 12 11 10 9 9 9 9 12 14 15 15 13 14 13 13 13 15 15 15 14
2 2 2 4 2 5 7 10 12 12 10 10 10 10 11 12 12 10 9 10 11 11 12 12 12 11 10 10 8 10 10 14 14 14 14 14 14 14 14 14 14 16 14 14
2 2 2 3 4 5 7 8 10 11 13 13 11 11 11 12 11 11 12 12 11 11 12 12 12 11 11 11 10 10 11 14 14 16 14 14 16 14 14 14 14 14 14 14
2 2 3 3 5 6 7 8 9 9 14 13 14 13 11 11 10 10 10 11 11 12 11 10 10 10 11 11 11 12 12 13 15 17 16 16 17 15 15 14 14 14 15 13
2 2 3 3 4 6 6 8 8 9 12 12 13 13 13 13 12 13 11 10 11 10 9 10 10 11 11 11 11 11 13 13 14 16 16 19 16 14 13 14 13 12 13 12
2 2 3 3 4 6 7 8 8 9 10 12 12 13 13 13 13 13 13 12 11 10 11 12 14 15 15 15 14 13 12 13 15 17 18 15 15 15 14 14 14 13 13 13
3 2 3 3 4 6 7 8 9 9 9 10 11 11 11 12 14 14 13 11 11 12 13 14 18 18 17 17 16 14 13 13 14 17 20 19 16 14 14 14 17 14 14 14
3 3 3 3 3 5 6 8 9 8 9 9 11 11 11 11 12 12 14 12 12 12 14 17 18 18 18 19 19 18 18 17 18 18 19 17 15 14 14 17 17 13 13 13
2 3 3 3 3 4 6 7 8 8 9 9 11 11 11 12 11 12 12 12 12 13 15 16 16 17 17 18 17 17 18 18 19 18 19 21 14 14 16 14 12 13 13 13
4 3 3 3 4 4 6 7 8 9 9 10 11 10 10 10 11 11 12 12 13 11 13 14 15 16 16 16 17 15 17 14 15 15 15 13 13 13 12 12 13 13 13 13
4 4 4 4 4 5 6 8 9 9 10 10 11 12 11 10 10 10 12 12 12 12 11 12 13 14 13 15 16 15 15 13 15 15 13 13 12 11 12 13 13 13 13 13
4 4 4 5 5 5 6 7 8 9 11 13 12 11 12 11 11 11 10 11 10 10 10 11 12 14 12 14 14 15 13 14 14 14 13 13 12 12 13 13 13 13 13 13
4 4 5 5 5 5 7 7 8 9 10 13 12 12 12 12 12 12 11 11 11 11 12 13 13 13 13 13 14 15 13 13 14 14 13 12 12 12 13 13 14 13 13 13
4 5 5 5 5 6 7 10 9 9 10 12 14 12 13 12 12 12 12 12 12 12 12 13 13 13 13 15 15 12 12 12 12 12 12 12 12 12 12 13 12 12 12 12
5 5 5 5 5 7 9 11 9 9 9 12 14 14 13 13 13 13 13 13 13 12 12 14 13 13 13 15 15 12 12 11 12 12 12 13 13 13 12 12 12 11 12 11
5 5 5 5 6 7 9 8 8 8 11 11 14 14 14 13 14 15 14 14 13 13 13 14 14 13 14 16 12 12 11 12 13 13 12 12 12 12 12 12 12 12 12 12
5 5 6 8 9 10 10 8 8 9 10 14 14 15 16 13 14 14 14 13 15 14 15 14 14 15 16 13 13 12 12 13 13 12 12 12 13 12 12 12 12 13 13 12
7 9 11 13 10 7 8 10 12 12 11 12 15 13 15 14 15 15 14 14 15 17 15 13 15 15 12 12 12 11 11 12 12 14 14 13 13 13 12 12 12 12 12 12
8 11 12 10 7 10 11 14 15 14 15 14 13 13 14 13 14 14 14 15 14 17 16 16 16 17 14 13 13 11 11 11 11 12 11 12 12 12 12 12 11 11 11 11
8 8 7 8 11 13 15 17 16 16 17 14 14 14 13 13 12 13 14 15 15 18 14 16 18 14 13 13 12 11 11 11 11 11 12 11 11 11 11 11 11 11 11 11
8 10 11 12 14 17 19 21 18 17 14 14 14 15 13 13 13 13 14 16 17 14 17 18 16 14 12 12 11 11 11 11 11 12 11 11 11 11 11 11 11 11 11 10
11 13 16 16 18 18 17 17 16 14 13 13 13 14 14 13 14 13 16 15 15 18 19 18 14 13 12 12 11 12 12 11 12 12 12 12 12 11 10 10 10 10 11 10
13 14 17 19 16 17 16 16 15 14 13 13 14 14 14 15 15 14 14 17 19 17 17 14 12 12 11 12 11 11 12 12 12 12 12 12 11 10 10 9 9 9 9 9
13 16 17 17 16 17 16 14 14 13 12 12 12 14 15 15 15 16 17 17 18 15 13 11 12 12 11 11 10 11 10 10 10 10 10 10 9 9 9 9 9 9 9 9
15 15 13 14 16 15 15 13 13 12 12 13 13 16 16 16 16 17 14 16 14 12 11 11 11 10 10 10 10 9 9 9 9 9 8 8 8 9 10 10 9 8 8 7